Andersen AFB, GU

12:00 PM ChST on March 23, 2017 (GMT +1000)
Andersen Air Force Base

Weather History for PGUA - April, 2013

Change the Weather History Date:

Friday, April 26, 2013

  Actual Average Record
Temperature  
Mean Temperature 81 °F -  
Max Temperature 86 °F 83 °F 87 °F (1998)
Min Temperature 76 °F 74 °F 73 °F (2016)
Cooling Degree Days 16    
Growing Degree Days 31 (Base 50)    
Moisture  
Dew Point 75 °F    
Average Humidity 84    
Maximum Humidity 94    
Minimum Humidity 70    
Precipitation  
Precipitation 0.07 in - - ()
Sea Level Pressure  
Sea Level Pressure 29.84 in    
Wind  
Wind Speed 11 mph (East)    
Max Wind Speed 17 mph    
Max Gust Speed 20 mph    
Visibility 10 miles    
Events Rain    
Averages and records for this station are not official NWS values.
T = Trace of Precipitation, MM = Missing Value Source: NWS Daily Summary

Daily Weather History Graph

Daily Weather History Graph

Search for Another Location

Airport or City:

Trip Planner

Search our weather history database for the weather conditions in past years. The results will help you decide how hot, cold, wet, or windy it might be!

Date:

Astronomy

Apr. 26, 2013 Rise Set
Actual Time 6:01 AM ChST 6:35 PM ChST
Civil Twilight 5:39 AM ChST 6:57 PM ChST
Nautical Twilight 5:13 AM ChST 7:22 PM ChST
Astronomical Twilight 4:47 AM ChST 7:48 PM ChST
Moon 7:04 PM ChST (4/26) 6:02 AM ChST (4/26)
Length of Visible Light 13h 17m
Length of Day
12h 33m
Full, 100% of the Moon is Illuminated
Apr 26
Full
May 2
Last Quarter
May 10
New
May 18
First Quarter
May 25
Full

Hourly Weather History & Observations

Time (ChST) Temp. Heat Index Dew Point Humidity Pressure Visibility Wind Dir Wind Speed Gust Speed Precip Events Conditions
12:06 AM 77.0 °F - 75.2 °F 94% 29.86 in 10.0 mi ENE 11.5 mph - N/A   Mostly Cloudy
12:55 AM 78.1 °F - 74.8 °F 90% 29.85 in 10.0 mi ENE 12.7 mph - N/A   Scattered Clouds
1:46 AM 77.0 °F - 75.2 °F 94% 29.84 in 10.0 mi ENE 8.1 mph - N/A   Mostly Cloudy
1:55 AM 77.7 °F - 75.4 °F 92% 29.84 in 10.0 mi ENE 15.0 mph - 0.00 in   Light Drizzle
2:03 AM 77.0 °F - 75.2 °F 94% 29.84 in 7.0 mi East 11.5 mph - N/A Rain Light Rain
2:04 AM 77.0 °F - 75.2 °F 94% 29.84 in 7.0 mi East 10.4 mph - N/A Rain Light Rain
2:23 AM 77.0 °F - 75.2 °F 94% 29.83 in 9.0 mi ENE 10.4 mph - N/A   Mostly Cloudy
2:55 AM 76.3 °F - 74.1 °F 93% 29.83 in 10.0 mi ENE 8.1 mph - 0.02 in   Partly Cloudy
3:15 AM 77.0 °F - 75.2 °F 94% 29.83 in 10.0 mi East 8.1 mph - N/A   Mostly Cloudy
3:45 AM 77.0 °F - 73.4 °F 89% 29.82 in 10.0 mi East 10.4 mph - N/A   Scattered Clouds
3:55 AM 77.7 °F - 74.1 °F 89% 29.82 in 10.0 mi East 11.5 mph - N/A   Scattered Clouds
4:02 AM 78.8 °F - 75.2 °F 89% 29.82 in 10.0 mi East 11.5 mph - N/A   Mostly Cloudy
4:07 AM 78.8 °F - 73.4 °F 83% 29.82 in 10.0 mi East 12.7 mph - N/A   Scattered Clouds
4:13 AM 78.8 °F - 73.4 °F 83% 29.82 in 10.0 mi East 11.5 mph - N/A   Scattered Clouds
4:16 AM 78.8 °F - 73.4 °F 83% 29.82 in 10.0 mi East 11.5 mph - N/A   Mostly Cloudy
4:32 AM 78.8 °F - 75.2 °F 89% - 10.0 mi North - - N/A   Scattered Clouds
4:43 AM 78.8 °F - 75.2 °F 89% 29.82 in 10.0 mi East 10.4 mph - N/A   Mostly Cloudy
4:54 AM 78.8 °F - 75.2 °F 89% 29.82 in 10.0 mi East 10.4 mph - N/A   Scattered Clouds
4:55 AM 78.1 °F - 74.7 °F 89% 29.82 in 10.0 mi ESE 10.4 mph - N/A   Scattered Clouds
4:56 AM 78.8 °F - 75.2 °F 89% 29.82 in 10.0 mi East 9.2 mph - N/A   Mostly Cloudy
4:59 AM 78.8 °F - 75.2 °F 89% 29.83 in 10.0 mi East 11.5 mph - N/A   Scattered Clouds
5:03 AM 77.0 °F - 73.4 °F 89% 29.83 in 10.0 mi East 9.2 mph - N/A   Mostly Cloudy
5:13 AM 78.8 °F - 73.4 °F 83% 29.83 in 10.0 mi East 11.5 mph - N/A   Mostly Cloudy
5:14 AM 78.8 °F - 73.4 °F 83% 29.83 in 10.0 mi East 11.5 mph - N/A   Scattered Clouds
5:42 AM 78.8 °F - 73.4 °F 83% 29.83 in 10.0 mi East 10.4 mph - N/A   Mostly Cloudy
5:45 AM 78.8 °F - 73.4 °F 83% 29.83 in 10.0 mi East 10.4 mph - N/A   Scattered Clouds
5:55 AM 77.9 °F - 73.9 °F 88% 29.84 in 10.0 mi East 10.4 mph - N/A   Mostly Cloudy
6:01 AM 78.8 °F - 73.4 °F 83% 29.84 in 10.0 mi East 10.4 mph - N/A   Mostly Cloudy
6:10 AM 78.8 °F - 73.4 °F 83% 29.84 in 10.0 mi ESE 9.2 mph - N/A   Mostly Cloudy
6:13 AM 78.8 °F - 73.4 °F 83% 29.84 in 10.0 mi ESE 8.1 mph - N/A   Scattered Clouds
6:21 AM 78.8 °F - 75.2 °F 89% 29.84 in 10.0 mi East 10.4 mph - N/A   Mostly Cloudy
6:35 AM 78.8 °F - 75.2 °F 89% 29.85 in 10.0 mi East 10.4 mph - N/A   Mostly Cloudy
6:36 AM 78.8 °F - 75.2 °F 89% 29.85 in 10.0 mi East 10.4 mph - N/A   Mostly Cloudy
6:55 AM 79.3 °F - 74.8 °F 86% 29.86 in 10.0 mi East 10.4 mph - N/A   Mostly Cloudy
6:57 AM 78.8 °F - 75.2 °F 89% 29.86 in 10.0 mi East 10.4 mph - N/A   Scattered Clouds
7:55 AM 81.3 °F 87.4 °F 75.0 °F 81% 29.88 in 10.0 mi East 11.5 mph - N/A   Partly Cloudy
8:55 AM 82.9 °F 90.8 °F 75.9 °F 79% 29.88 in 10.0 mi East 12.7 mph - N/A   Scattered Clouds
9:03 AM 82.4 °F 89.5 °F 75.2 °F 79% 29.88 in 10.0 mi East 12.7 mph - N/A   Mostly Cloudy
9:10 AM 82.4 °F 89.5 °F 75.2 °F 79% 29.89 in 10.0 mi East 11.5 mph - N/A   Mostly Cloudy
9:16 AM 82.4 °F 89.5 °F 75.2 °F 79% 29.88 in 10.0 mi East 11.5 mph - N/A   Scattered Clouds
9:18 AM 82.4 °F 89.5 °F 75.2 °F 79% 29.89 in 10.0 mi East 12.7 mph - N/A   Mostly Cloudy
9:20 AM 82.4 °F 89.5 °F 75.2 °F 79% 29.89 in 10.0 mi SE 12.7 mph - N/A   Mostly Cloudy
9:27 AM 80.6 °F 85.4 °F 73.4 °F 79% 29.88 in 10.0 mi ESE 9.2 mph 19.6 mph N/A   Scattered Clouds
9:50 AM 82.4 °F 89.5 °F 75.2 °F 79% 29.88 in 5.0 mi ESE 12.7 mph - N/A Rain Light Rain
9:55 AM 80.8 °F 87.6 °F 77.4 °F 89% 29.88 in 3.0 mi East 10.4 mph - 0.02 in Rain Light Rain
10:02 AM 80.6 °F 87.1 °F 77.0 °F 89% 29.88 in 9.0 mi East 8.1 mph - N/A   Partly Cloudy
10:55 AM 83.1 °F 91.9 °F 76.6 °F 81% 29.87 in 10.0 mi East 10.4 mph - 0.00 in   Scattered Clouds
11:13 AM 82.4 °F 90.9 °F 77.0 °F 84% 29.87 in 9.0 mi ESE 12.7 mph - N/A   Light Drizzle
11:18 AM 80.6 °F 87.1 °F 77.0 °F 89% 29.86 in 8.0 mi ESE 11.5 mph - N/A Rain Light Rain
11:22 AM 80.6 °F 87.1 °F 77.0 °F 89% 29.86 in 8.0 mi ESE 11.5 mph - N/A Rain Light Rain
11:26 AM 82.4 °F 90.9 °F 77.0 °F 84% 29.86 in 10.0 mi ESE 10.4 mph - N/A   Mostly Cloudy
11:34 AM 82.4 °F 90.9 °F 77.0 °F 84% 29.86 in 10.0 mi ESE 9.2 mph - N/A   Mostly Cloudy
11:35 AM 82.4 °F 90.9 °F 77.0 °F 84% 29.86 in 10.0 mi ESE 10.4 mph - N/A   Mostly Cloudy
11:55 AM 83.8 °F 93.5 °F 77.0 °F 80% 29.86 in 10.0 mi East 12.7 mph - 0.00 in   Mostly Cloudy
11:56 AM 84.2 °F 94.1 °F 77.0 °F 79% 29.86 in 10.0 mi East 13.8 mph - N/A   Mostly Cloudy
12:55 PM 85.1 °F 93.7 °F 75.2 °F 72% 29.83 in 10.0 mi East 13.8 mph - N/A   Mostly Cloudy
1:04 PM 84.2 °F 92.3 °F 75.2 °F 74% 29.83 in 10.0 mi East 11.5 mph - N/A   Mostly Cloudy
1:08 PM 86.0 °F 95.1 °F 75.2 °F 70% 29.83 in 10.0 mi East 11.5 mph - N/A   Mostly Cloudy
1:33 PM 84.2 °F 92.3 °F 75.2 °F 74% 29.82 in 10.0 mi East 11.5 mph - N/A   Mostly Cloudy
1:49 PM 86.0 °F 95.1 °F 75.2 °F 70% 29.82 in 10.0 mi East 11.5 mph - N/A   Scattered Clouds
1:55 PM 85.3 °F 94.6 °F 75.7 °F 73% 29.81 in 10.0 mi East 9.2 mph 17.3 mph N/A   Scattered Clouds
2:10 PM 84.2 °F 94.1 °F 77.0 °F 79% 29.81 in 10.0 mi East 9.2 mph 17.3 mph N/A   Mostly Cloudy
2:21 PM 84.2 °F 92.3 °F 75.2 °F 74% 29.81 in 10.0 mi East 12.7 mph 19.6 mph N/A   Mostly Cloudy
2:22 PM 84.2 °F 92.3 °F 75.2 °F 74% 29.81 in 10.0 mi East 12.7 mph - N/A   Mostly Cloudy
2:47 PM 84.2 °F 92.3 °F 75.2 °F 74% 29.80 in 10.0 mi East 11.5 mph - N/A   Mostly Cloudy
2:49 PM 84.2 °F 92.3 °F 75.2 °F 74% 29.80 in 10.0 mi East 10.4 mph - N/A   Scattered Clouds
2:55 PM 84.9 °F 93.7 °F 75.4 °F 73% 29.80 in 10.0 mi East 12.7 mph - N/A   Mostly Cloudy
3:00 PM 84.2 °F 92.3 °F 75.2 °F 74% 29.80 in 10.0 mi East 12.7 mph - N/A   Scattered Clouds
3:11 PM 84.2 °F 94.1 °F 77.0 °F 79% 29.80 in 10.0 mi East 11.5 mph - N/A   Mostly Cloudy
3:24 PM 84.2 °F 92.3 °F 75.2 °F 74% 29.79 in 10.0 mi East 13.8 mph - N/A   Scattered Clouds
3:31 PM 84.2 °F 92.3 °F 75.2 °F 74% 29.79 in 10.0 mi ESE 13.8 mph - N/A   Mostly Cloudy
3:35 PM 84.2 °F 92.3 °F 75.2 °F 74% 29.79 in 10.0 mi East 12.7 mph - N/A   Scattered Clouds
3:55 PM 84.9 °F 93.7 °F 75.2 °F 73% 29.78 in 10.0 mi ESE 11.5 mph - N/A   Partly Cloudy
4:53 PM 82.4 °F 89.5 °F 75.2 °F 79% 29.78 in 10.0 mi East 13.8 mph - N/A   Mostly Cloudy
4:54 PM 82.4 °F 89.5 °F 75.2 °F 79% 29.78 in 10.0 mi East 13.8 mph - N/A   Mostly Cloudy
4:55 PM 82.6 °F 89.9 °F 75.6 °F 79% 29.78 in 10.0 mi East 13.8 mph - N/A   Mostly Cloudy
4:56 PM 82.4 °F 89.5 °F 75.2 °F 79% 29.78 in 10.0 mi East 13.8 mph - N/A   Scattered Clouds
5:55 PM 81.0 °F 86.5 °F 74.5 °F 81% 29.80 in 10.0 mi East 11.5 mph - N/A   Partly Cloudy
6:12 PM 80.6 °F 86.2 °F 75.2 °F 84% 29.81 in 10.0 mi East 11.5 mph - N/A   Mostly Cloudy
6:18 PM 80.6 °F 86.2 °F 75.2 °F 84% 29.81 in 10.0 mi East 9.2 mph - N/A   Mostly Cloudy
6:21 PM 80.6 °F 86.2 °F 75.2 °F 84% 29.81 in 10.0 mi East 8.1 mph - N/A   Mostly Cloudy
6:25 PM 80.6 °F 86.2 °F 75.2 °F 84% 29.81 in 10.0 mi East 10.4 mph - N/A   Mostly Cloudy
6:40 PM 80.6 °F 86.2 °F 75.2 °F 84% 29.81 in 10.0 mi East 11.5 mph - N/A   Mostly Cloudy
6:47 PM 80.6 °F 86.2 °F 75.2 °F 84% 29.81 in 10.0 mi East 10.4 mph - N/A   Scattered Clouds
6:55 PM 79.9 °F - 74.5 °F 83% 29.82 in 10.0 mi East 11.5 mph - N/A   Scattered Clouds
7:36 PM 80.6 °F 86.2 °F 75.2 °F 84% 29.83 in 10.0 mi East 11.5 mph - N/A   Mostly Cloudy
7:47 PM 80.6 °F 86.2 °F 75.2 °F 84% 29.83 in 10.0 mi East 10.4 mph - N/A   Scattered Clouds
7:55 PM 79.7 °F - 74.1 °F 83% 29.83 in 10.0 mi East 13.8 mph - N/A   Scattered Clouds
8:55 PM 79.7 °F - 74.7 °F 84% 29.86 in 10.0 mi East 13.8 mph - N/A   Partly Cloudy
8:59 PM 78.8 °F - 75.2 °F 89% 29.86 in 8.0 mi ENE 17.3 mph - N/A Rain Rain
9:04 PM 78.8 °F - 73.4 °F 83% 29.86 in 6.0 mi ENE 9.2 mph - N/A Rain Light Rain
9:17 PM 78.8 °F - 75.2 °F 89% 29.86 in 9.0 mi ENE 6.9 mph - N/A   Mostly Cloudy
9:27 PM 78.8 °F - 75.2 °F 89% 29.86 in 10.0 mi East 12.7 mph 17.3 mph N/A   Mostly Cloudy
9:55 PM 78.8 °F - 75.4 °F 89% 29.87 in 10.0 mi ENE 12.7 mph - 0.03 in   Mostly Cloudy
10:00 PM 78.8 °F - 75.2 °F 89% 29.87 in 10.0 mi East 10.4 mph - N/A   Scattered Clouds
10:08 PM 78.8 °F - 75.2 °F 89% 29.87 in 10.0 mi East 10.4 mph - N/A   Mostly Cloudy
10:31 PM 78.8 °F - 75.2 °F 89% 29.88 in 10.0 mi East 11.5 mph - N/A   Scattered Clouds
10:33 PM 78.8 °F - 75.2 °F 89% 29.88 in 10.0 mi East 9.2 mph - N/A   Mostly Cloudy
10:39 PM 78.8 °F - 75.2 °F 89% 29.88 in 10.0 mi East 10.4 mph - N/A   Scattered Clouds
10:40 PM 78.8 °F - 75.2 °F 89% 29.88 in 10.0 mi East 9.2 mph - N/A   Mostly Cloudy
10:42 PM 78.8 °F - 75.2 °F 89% 29.88 in 10.0 mi East 10.4 mph - N/A   Mostly Cloudy
10:44 PM 78.8 °F - 75.2 °F 89% 29.88 in 10.0 mi East 10.4 mph - N/A   Mostly Cloudy
10:47 PM 78.8 °F - 75.2 °F 89% 29.88 in 10.0 mi East 11.5 mph - N/A   Scattered Clouds
10:55 PM 78.8 °F - 75.4 °F 89% 29.88 in 10.0 mi East 9.2 mph - N/A   Scattered Clouds
11:43 PM 78.8 °F - 75.2 °F 89% 29.87 in 10.0 mi East 10.4 mph - N/A   Mostly Cloudy
11:55 PM 78.8 °F - 74.7 °F 87% 29.87 in 10.0 mi East 11.5 mph - N/A   Scattered Clouds